Terminal Aerodrome Forecast
Issued by NWS Spokane, WA

Home | Current Version | Previous Version | Text Only | Print | Product List | Glossary On
Versions: 1 2 3 4 5 6 7 8 9 10 11 12 13 14 15 16 17 18 19 20 21 22 23 24
000
FTUS46 KOTX 042326
TAFLWS
TAF
KLWS 042326Z 0500/0524 32010G17KT P6SM SCT110
     FM050400 25006KT P6SM FEW120 SCT200
     FM051800 30007KT P6SM SKC
     FM052200 30011G20KT P6SM SKC=

USA.gov is the U.S. government's official web portal to all federal, state and local government web resources and services.